Location: ?ejeti?ky
(50.4060°N, 14.9016°E)
Time: 16:38:12
(UTC+00:00)

N. Korean satellite - Visible Passes

Search period start: 08 March 2021 00:00
Search period end: 18 March 2021 00:00
Orbit: 451 x 502 km, 97.2° (Epoch: 07 March)

Date Brightness Start Highest point End Pass type
(mag) Time Alt. Az. Time Alt. Az. Time Alt. Az.
08 Mar 6.5 04:43:25 10° N 04:46:59 78° WNW 04:50:35 10° SSW visible
09 Mar 7.6 04:16:41 10° NNE 04:20:11 50° E 04:23:43 10° S visible
10 Mar 9.0 03:50:14 10° NE 03:53:17 25° E 03:56:20 10° SSE visible
11 Mar 9.8 03:24:22 10° ENE 03:26:16 14° E 03:28:12 10° ESE visible
12 Mar 6.9 04:29:31 10° NNE 04:33:07 73° ESE 04:36:45 10° S visible
13 Mar 8.4 04:02:54 10° NNE 04:06:15 35° E 04:09:38 10° SSE visible
14 Mar 9.6 03:36:39 10° NE 03:39:17 19° E 03:41:55 10° SE visible
16 Mar 7.7 04:15:36 10° NNE 04:19:09 50° E 04:22:42 10° S visible
17 Mar 9.1 03:49:07 10° NE 03:52:12 25° E 03:55:18 10° SSE visible
